• In Netherlands
  • List of Countries
  • For 7 days
  • Water Temperature
  • Satellite Maps
  • Weather Map
  • Weather Widgets
  • user-avatar
    Login

    Hourly Weather Canillo

    Today, 24 February, Saturday

    Time Temperature Precipitation Wind Pressure Humidity
    00:00 -9°C° 0 mm 1 mps 607 mmHg 80%
    01:00 -9°C° 0 mm 1 mps 607 mmHg 79%
    02:00 -9°C° 0 mm 1 mps 607 mmHg 78%
    03:00 -9°C° 0 mm 1 mps 607 mmHg 77%
    04:00 -9°C° 0 mm 1 mps 607 mmHg 76%
    05:00 -9°C° 0 mm 1 mps 607 mmHg 75%
    06:00 -9°C° 0 mm 1 mps 607 mmHg 74%
    07:00 -7°C° 0 mm 0 mps 608 mmHg 67%
    08:00 -5°C° 0 mm 0 mps 609 mmHg 61%
    09:00 -3°C° 0 mm 0 mps 610 mmHg 54%
    10:00 -1°C° 0 mm 0 mps 610 mmHg 52%
    11:00 +1°C° 0 mm 1 mps 611 mmHg 50%
    12:00 +2°C° 0 mm 1 mps 611 mmHg 48%
    13:00 +2°C° 0 mm 1 mps 611 mmHg 51%
    14:00 +1°C° 0 mm 1 mps 611 mmHg 53%
    15:00 +1°C° 0 mm 1 mps 611 mmHg 55%
    16:00 0°C° 0.1 mm 1 mps 610 mmHg 63%
    17:00 -2°C° 0.1 mm 1 mps 610 mmHg 70%
    18:00 -4°C° 0.1 mm 1 mps 609 mmHg 78%
    19:00 -4°C° 0 mm 1 mps 609 mmHg 79%
    20:00 -4°C° 0 mm 1 mps 609 mmHg 80%
    21:00 -4°C° 0 mm 1 mps 610 mmHg 81%
    22:00 -6°C° 0 mm 1 mps 610 mmHg 79%
    23:00 -6°C° 0 mm 1 mps 610 mmHg 77%

    Tomorrow, 25 February, Sunday

    Time Temperature Precipitation Wind Pressure Humidity
    00:00 -6°C° 0 mm 1 mps 610 mmHg 75%
    01:00 -6°C° 0 mm 1 mps 610 mmHg 74%
    02:00 -6°C° 0 mm 1 mps 610 mmHg 72%
    03:00 -7°C° 0 mm 2 mps 609 mmHg 71%
    04:00 -7°C° 0 mm 2 mps 610 mmHg 70%
    05:00 -7°C° 0 mm 2 mps 610 mmHg 70%
    06:00 -7°C° 0 mm 2 mps 610 mmHg 70%
    07:00 -3°C° 0 mm 1 mps 610 mmHg 66%
    08:00 -1°C° 0 mm 1 mps 611 mmHg 62%
    09:00 +1°C° 0 mm 1 mps 612 mmHg 58%
    10:00 +1°C° 0 mm 2 mps 613 mmHg 58%
    11:00 +2°C° 0 mm 2 mps 613 mmHg 57%
    12:00 +3°C° 0 mm 2 mps 613 mmHg 56%
    13:00 +3°C° 0 mm 2 mps 613 mmHg 58%
    14:00 +3°C° 0 mm 2 mps 613 mmHg 59%
    15:00 +2°C° 0 mm 3 mps 612 mmHg 60%
    16:00 +1°C° 0 mm 2 mps 612 mmHg 68%
    17:00 -2°C° 0 mm 2 mps 611 mmHg 76%
    18:00 -4°C° 0 mm 2 mps 610 mmHg 84%
    19:00 -5°C° 0 mm 2 mps 610 mmHg 84%
    20:00 -6°C° 0 mm 2 mps 610 mmHg 84%
    21:00 -6°C° 0 mm 2 mps 610 mmHg 84%
    22:00 -7°C° 0 mm 2 mps 610 mmHg 82%
    23:00 -7°C° 0 mm 2 mps 610 mmHg 80%

    Day after tomorrow, 26 February, Monday

    Time Temperature Precipitation Wind Pressure Humidity
    00:00 -7°C° 0 mm 2 mps 610 mmHg 78%
    01:00 -7°C° 0 mm 2 mps 610 mmHg 79%
    02:00 -7°C° 0 mm 2 mps 610 mmHg 79%
    03:00 -8°C° 0 mm 2 mps 609 mmHg 79%
    04:00 -8°C° 0 mm 2 mps 609 mmHg 79%
    05:00 -8°C° 0 mm 2 mps 609 mmHg 80%
    06:00 -9°C° 0 mm 2 mps 609 mmHg 80%
    07:00 -7°C° 0 mm 2 mps 610 mmHg 74%
    08:00 -6°C° 0 mm 2 mps 610 mmHg 67%
    09:00 -5°C° 0 mm 2 mps 611 mmHg 61%
    10:00 -4°C° 0 mm 2 mps 611 mmHg 57%
    11:00 -3°C° 0 mm 2 mps 611 mmHg 53%
    12:00 -2°C° 0 mm 2 mps 611 mmHg 49%
    13:00 -2°C° 0 mm 2 mps 611 mmHg 52%
    14:00 -3°C° 0 mm 2 mps 610 mmHg 54%
    15:00 -3°C° 0 mm 2 mps 610 mmHg 57%
    16:00 -5°C° 0.1 mm 2 mps 609 mmHg 61%
    17:00 -7°C° 0.1 mm 2 mps 608 mmHg 66%
    18:00 -8°C° 0.1 mm 2 mps 608 mmHg 71%
    19:00 -9°C° 0.2 mm 2 mps 608 mmHg 70%
    20:00 -8°C° 0.2 mm 1 mps 608 mmHg 69%
    21:00 -9°C° 0.2 mm 1 mps 608 mmHg 68%
    22:00 -9°C° 0.2 mm 1 mps 608 mmHg 69%
    23:00 -9°C° 0.2 mm 1 mps 608 mmHg 70%

    27 February, Tuesday

    Time Temperature Precipitation Wind Pressure Humidity
    00:00 -9°C° 0.2 mm 1 mps 608 mmHg 72%
    01:00 -9°C° 0.1 mm 1 mps 607 mmHg 72%
    02:00 -10°C° 0.1 mm 1 mps 607 mmHg 72%
    03:00 -10°C° 0.1 mm 1 mps 607 mmHg 72%
    04:00 -10°C° 0.1 mm 1 mps 607 mmHg 72%
    05:00 -10°C° 0.1 mm 1 mps 606 mmHg 72%
    06:00 -11°C° 0.1 mm 1 mps 606 mmHg 72%
    07:00 -10°C° 0 mm 1 mps 607 mmHg 68%
    08:00 -9°C° 0 mm 1 mps 608 mmHg 63%
    09:00 -8°C° 0 mm 1 mps 608 mmHg 59%
    10:00 -8°C° 0.1 mm 2 mps 608 mmHg 57%
    11:00 -7°C° 0.1 mm 2 mps 609 mmHg 55%
    12:00 -6°C° 0.1 mm 2 mps 609 mmHg 54%
    13:00 -6°C° 0.2 mm 2 mps 608 mmHg 57%
    14:00 -7°C° 0.2 mm 2 mps 608 mmHg 60%
    15:00 -7°C° 0.2 mm 2 mps 608 mmHg 63%
    16:00 -7°C° 0.2 mm 1 mps 608 mmHg 66%
    17:00 -8°C° 0.2 mm 1 mps 607 mmHg 69%
    18:00 -9°C° 0.2 mm 1 mps 607 mmHg 72%
    19:00 -9°C° 0.1 mm 1 mps 608 mmHg 72%
    20:00 -9°C° 0.1 mm 1 mps 608 mmHg 72%
    21:00 -9°C° 0.1 mm 1 mps 608 mmHg 73%
    22:00 -9°C° 0 mm 1 mps 608 mmHg 74%
    23:00 -10°C° 0 mm 1 mps 607 mmHg 75%

    28 February, Wednesday

    Time Temperature Precipitation Wind Pressure Humidity
    00:00 -10°C° 0 mm 1 mps 607 mmHg 77%
    01:00 -10°C° 0 mm 1 mps 607 mmHg 77%
    02:00 -10°C° 0 mm 1 mps 607 mmHg 77%
    03:00 -10°C° 0 mm 1 mps 606 mmHg 77%
    04:00 -10°C° 0.1 mm 1 mps 606 mmHg 75%
    05:00 -10°C° 0.1 mm 1 mps 606 mmHg 74%
    06:00 -9°C° 0.1 mm 1 mps 606 mmHg 72%
    07:00 -9°C° 0.4 mm 2 mps 607 mmHg 74%
    08:00 -8°C° 0.4 mm 2 mps 607 mmHg 75%
    09:00 -8°C° 0.4 mm 3 mps 607 mmHg 77%
    10:00 -7°C° 0.9 mm 3 mps 607 mmHg 78%
    11:00 -8°C° 0.9 mm 4 mps 607 mmHg 79%
    12:00 -7°C° 0.9 mm 4 mps 607 mmHg 80%
    13:00 -7°C° 1 mm 4 mps 606 mmHg 80%
    14:00 -5°C° 1 mm 4 mps 605 mmHg 81%
    15:00 -5°C° 1 mm 4 mps 605 mmHg 82%
    16:00 -5°C° 0.8 mm 4 mps 604 mmHg 85%
    17:00 -5°C° 0.8 mm 4 mps 604 mmHg 88%
    18:00 -4°C° 0.8 mm 3 mps 603 mmHg 91%
    19:00 -4°C° 1 mm 3 mps 603 mmHg 92%
    20:00 -4°C° 1 mm 3 mps 603 mmHg 93%
    21:00 -2°C° 1 mm 3 mps 603 mmHg 94%
    22:00 -2°C° 1 mm 3 mps 602 mmHg 93%
    23:00 -2°C° 1 mm 3 mps 602 mmHg 93%

    1 March, Thursday

    Time Temperature Precipitation Wind Pressure Humidity
    00:00 -1°C° 1 mm 3 mps 601 mmHg 93%
    01:00 -1°C° 1.5 mm 3 mps 601 mmHg 93%
    02:00 -1°C° 1.5 mm 3 mps 601 mmHg 92%
    03:00 -1°C° 1.5 mm 3 mps 600 mmHg 92%
    04:00 -1°C° 0.1 mm 3 mps 600 mmHg 92%
    05:00 -2°C° 0.1 mm 3 mps 600 mmHg 93%
    06:00 -2°C° 0.1 mm 3 mps 600 mmHg 93%
    07:00 -1°C° 0.1 mm 3 mps 600 mmHg 92%
    08:00 0°C° 0.1 mm 3 mps 600 mmHg 90%
    09:00 +1°C° 0.1 mm 3 mps 600 mmHg 89%
    10:00 +1°C° 0.3 mm 4 mps 600 mmHg 85%
    11:00 +3°C° 0.3 mm 4 mps 600 mmHg 82%
    12:00 +3°C° 0.3 mm 5 mps 600 mmHg 79%
    13:00 +3°C° 2.1 mm 5 mps 599 mmHg 80%
    14:00 +3°C° 2.1 mm 4 mps 599 mmHg 82%
    15:00 +3°C° 2.1 mm 4 mps 598 mmHg 83%
    16:00 +1°C° 0.7 mm 4 mps 598 mmHg 85%
    17:00 0°C° 0.7 mm 4 mps 597 mmHg 86%
    18:00 0°C° 0.7 mm 4 mps 597 mmHg 88%
    19:00 -1°C° 0.9 mm 4 mps 596 mmHg 89%
    20:00 0°C° 0.9 mm 3 mps 596 mmHg 90%
    21:00 0°C° 0.9 mm 3 mps 596 mmHg 91%
    22:00 0°C° 0.9 mm 3 mps 596 mmHg 91%
    23:00 0°C° 0.9 mm 3 mps 595 mmHg 92%
    Show more